Location: Audinghen
(50.8518°N, 1.6129°E)
Time: 21:35:15
(UTC+00:00)

Meteor 1-12 Rocket - Pass Details

Date: 07 August 2020
Orbit: 854 x 927 km, 81.2° (Epoch: 21 September)

Event Time Altitude Azimuth Distance (km) Brightness Sun altitude
Exits shadow 01:11:30 40° 185° (S) 1,329 4.7 -21.0°
Maximum altitude 01:13:50 84° 100° (E) 931 4.3 -20.9°
Drops below altitude 10° 01:19:53 10° 14° (NNE) 2,639 8.0 -20.5°
Sets 01:22:23 0° 14° (NNE) 3,588 9.0 -20.4°
